Mesquite, TX

7:00 PM CDT on September 19, 2017 (GMT -0500)
Mesquite Metro

Weather History for KHQZ - May, 2014

Change the Weather History Date:

Monday, May 5, 2014

  Actual Average (KDFW) Record (KDFW)
Temperature  
Mean Temperature 70 °F -  
Max Temperature 86 °F 79 °F 95 °F (1984)
Min Temperature 55 °F 60 °F 44 °F (1935)
Cooling Degree Days 6    
Growing Degree Days 20 (Base 50)    
Moisture  
Dew Point 49 °F    
Average Humidity 48    
Maximum Humidity 100    
Minimum Humidity 33    
Precipitation  
Precipitation 0.00 in - - ()
Sea Level Pressure  
Sea Level Pressure 29.90 in    
Wind  
Wind Speed 13 mph (SSE)    
Max Wind Speed 22 mph    
Max Gust Speed 29 mph    
Visibility 10 miles    
Events      
Averages and records for this station are not official NWS values.
T = Trace of Precipitation, MM = Missing Value Source: NWS Daily Summary

Daily Weather History Graph

Daily Weather History Graph

Search for Another Location

Airport or City:

Trip Planner

Search our weather history database for the weather conditions in past years. The results will help you decide how hot, cold, wet, or windy it might be!

Date:

Astronomy

May. 05, 2014 Rise Set
Actual Time 6:35 AM CDT 8:10 PM CDT
Civil Twilight 6:08 AM CDT 8:37 PM CDT
Nautical Twilight 5:36 AM CDT 9:09 PM CDT
Astronomical Twilight 5:03 AM CDT 9:42 PM CDT
Moon 11:54 AM CDT (5/5) 12:56 AM CDT (5/5)
Length of Visible Light 14h 28m
Length of Day
13h 35m
Waxing Crescent, 37% of the Moon is Illuminated
May 5
Waxing Crescent
May 6
First Quarter
May 14
Full
May 21
Last Quarter
May 28
New

Hourly Weather History & Observations

Time (CDT) Temp. Heat Index Dew Point Humidity Pressure Visibility Wind Dir Wind Speed Gust Speed Precip Events Conditions
12:15 AM 70.3 °F - 44.4 °F 39% 29.96 in 10.0 mi South 16.1 mph 20.7 mph N/A   Clear
12:35 AM 70.0 °F - 43.7 °F 39% 29.96 in 10.0 mi South 15.0 mph 19.6 mph N/A   Clear
12:55 AM 69.4 °F - 43.3 °F 39% 29.95 in 10.0 mi South 15.0 mph 21.9 mph N/A   Clear
1:15 AM 68.4 °F - 43.7 °F 41% 29.96 in 10.0 mi South 12.7 mph - N/A   Clear
1:35 AM 67.1 °F - 44.6 °F 44% 29.95 in 10.0 mi SSE 12.7 mph - N/A   Clear
1:55 AM 66.6 °F - 43.7 °F 44% 29.95 in 10.0 mi South 15.0 mph 19.6 mph N/A   Clear
2:15 AM 66.0 °F - 43.3 °F 44% 29.94 in 10.0 mi SSE 15.0 mph 20.7 mph N/A   Clear
2:35 AM 65.1 °F - 43.0 °F 45% 29.94 in 10.0 mi South 12.7 mph 19.6 mph N/A   Clear
2:55 AM 64.6 °F - 42.4 °F 44% 29.94 in 10.0 mi South 13.8 mph - N/A   Clear
3:15 AM 63.5 °F - 42.1 °F 46% 29.94 in 10.0 mi South 10.4 mph - N/A   Clear
3:35 AM 62.6 °F - 41.5 °F 46% 29.93 in 10.0 mi South 11.5 mph - N/A   Clear
3:55 AM 61.7 °F - 40.8 °F 46% 29.93 in 10.0 mi South 10.4 mph - N/A   Clear
4:15 AM 60.6 °F - 40.3 °F 47% 29.93 in 10.0 mi South 8.1 mph - N/A   Clear
4:35 AM 59.9 °F - 40.1 °F 48% 29.94 in 10.0 mi South 6.9 mph - N/A   Clear
4:55 AM 58.6 °F - 40.5 °F 51% 29.94 in 10.0 mi South 8.1 mph - N/A   Clear
5:15 AM 57.9 °F - 41.0 °F 53% 29.94 in 10.0 mi South 8.1 mph - N/A   Clear
5:35 AM 57.7 °F - 42.3 °F 56% 29.94 in 10.0 mi South 8.1 mph - N/A   Clear
6:47 AM 55.4 °F - 46.4 °F 72% 29.95 in 10.0 mi SSE 6.9 mph - N/A   Clear
7:55 AM 60.8 °F - 60.8 °F 100% 29.96 in 10.0 mi SSE 6.9 mph - N/A   Clear
8:55 AM 68.0 °F - 57.2 °F 68% 29.95 in 10.0 mi South 10.4 mph 23.0 mph N/A   Clear
9:50 AM 71.6 °F - 55.4 °F 57% 29.95 in 10.0 mi South 16.1 mph 25.3 mph N/A   Clear
10:52 AM 75.2 °F - 57.2 °F 53% 29.94 in 10.0 mi South 17.3 mph 21.9 mph N/A   Clear
11:55 AM 78.8 °F - 57.2 °F 47% 29.93 in 10.0 mi South 19.6 mph 24.2 mph N/A   Clear
12:50 PM 82.4 °F 82.0 °F 57.2 °F 42% 29.91 in 10.0 mi SSE 15.0 mph 21.9 mph N/A   Clear
1:50 PM 84.2 °F 83.5 °F 57.2 °F 40% 29.89 in 10.0 mi South 16.1 mph 27.6 mph N/A   Clear
2:50 PM 84.2 °F 83.5 °F 57.2 °F 40% 29.88 in 10.0 mi SSE 18.4 mph 26.5 mph N/A   Clear
3:50 PM 86.0 °F 84.2 °F 53.6 °F 33% 29.83 in 10.0 mi South 21.9 mph 28.8 mph N/A   Clear
4:50 PM 86.0 °F 84.2 °F 53.6 °F 33% 29.83 in 10.0 mi South 15.0 mph 24.2 mph N/A   Clear
5:50 PM 84.2 °F 83.0 °F 55.4 °F 37% 29.80 in 10.0 mi SSE 15.0 mph 24.2 mph N/A   Clear
6:50 PM 82.4 °F 81.7 °F 55.4 °F 39% 29.79 in 10.0 mi SE 12.7 mph - N/A   Clear
7:50 PM 78.8 °F - 53.6 °F 42% 29.79 in 10.0 mi SE 12.7 mph - N/A   Clear
9:55 PM 73.2 °F - 53.8 °F 50% 29.79 in 10.0 mi SSE 11.5 mph - N/A   Clear
10:15 PM 72.9 °F - 54.0 °F 51% 29.80 in 10.0 mi SSE 12.7 mph 19.6 mph N/A   Clear
10:35 PM 73.0 °F - 54.0 °F 51% 29.81 in 10.0 mi South 11.5 mph 18.4 mph N/A   Clear
10:55 PM 73.0 °F - 54.0 °F 51% 29.81 in 10.0 mi SSE 11.5 mph - N/A   Clear
11:15 PM 72.3 °F - 54.1 °F 53% 29.81 in 10.0 mi SSE 10.4 mph - N/A   Clear
11:35 PM 71.2 °F - 54.5 °F 55% 29.82 in 10.0 mi SSE 10.4 mph 17.3 mph N/A   Clear